Year,Month,Day,Hour,Minute,Value (Times are PST for insolation in W/m^2)
2016,06,14,00,00,0.00
2016,06,14,00,01,0.00
2016,06,14,00,02,0.00
2016,06,14,00,03,0.00
2016,06,14,00,04,0.00
2016,06,14,00,05,0.00
2016,06,14,00,06,0.00
2016,06,14,00,07,0.00
2016,06,14,00,08,0.00
2016,06,14,00,09,0.00
2016,06,14,00,10,0.00
2016,06,14,00,11,0.00
2016,06,14,00,12,0.00
2016,06,14,00,13,0.00
2016,06,14,00,14,0.00
2016,06,14,00,15,0.00
2016,06,14,00,16,0.00
2016,06,14,00,17,0.00
2016,06,14,00,18,0.00
2016,06,14,00,19,0.00
2016,06,14,00,20,0.00
2016,06,14,00,21,0.00
2016,06,14,00,22,0.00
2016,06,14,00,23,0.00
2016,06,14,00,24,0.00
2016,06,14,00,25,0.00
2016,06,14,00,26,0.00
2016,06,14,00,27,0.00
2016,06,14,00,28,0.00
2016,06,14,00,29,0.00
2016,06,14,00,30,0.00
2016,06,14,00,31,0.00
2016,06,14,00,32,0.00
2016,06,14,00,33,0.00
2016,06,14,00,34,0.00
2016,06,14,00,35,0.00
2016,06,14,00,36,0.00
2016,06,14,00,37,0.00
2016,06,14,00,38,0.00
2016,06,14,00,39,0.00
2016,06,14,00,40,0.00
2016,06,14,00,41,0.00
2016,06,14,00,42,0.00
2016,06,14,00,43,0.00
2016,06,14,00,44,0.00
2016,06,14,00,45,0.00
2016,06,14,00,46,0.00
2016,06,14,00,47,0.00
2016,06,14,00,48,0.00
2016,06,14,00,49,0.00
2016,06,14,00,50,0.00
2016,06,14,00,51,0.00
2016,06,14,00,52,0.00
2016,06,14,00,53,0.00
2016,06,14,00,54,0.00
2016,06,14,00,55,0.00
2016,06,14,00,56,0.00
2016,06,14,00,57,0.00
2016,06,14,00,58,0.00
2016,06,14,00,59,0.00
2016,06,14,01,00,0.00
2016,06,14,01,01,0.00
2016,06,14,01,02,0.00
2016,06,14,01,03,0.00
2016,06,14,01,04,0.00
2016,06,14,01,05,0.00
2016,06,14,01,06,0.00
2016,06,14,01,07,0.00
2016,06,14,01,08,0.00
2016,06,14,01,09,0.00
2016,06,14,01,10,0.00
2016,06,14,01,11,0.00
2016,06,14,01,12,0.00
2016,06,14,01,13,0.00
2016,06,14,01,14,0.00
2016,06,14,01,15,0.00
2016,06,14,01,16,0.00
2016,06,14,01,17,0.00
2016,06,14,01,18,0.00
2016,06,14,01,19,0.00
2016,06,14,01,20,0.00
2016,06,14,01,21,0.00
2016,06,14,01,22,0.00
2016,06,14,01,23,0.00
2016,06,14,01,24,0.00
2016,06,14,01,25,0.00
2016,06,14,01,26,0.00
2016,06,14,01,27,0.00
2016,06,14,01,28,0.00
2016,06,14,01,29,0.00
2016,06,14,01,30,0.00
2016,06,14,01,31,0.00
2016,06,14,01,32,0.00
2016,06,14,01,33,0.00
2016,06,14,01,34,0.00
2016,06,14,01,35,0.00
2016,06,14,01,36,0.00
2016,06,14,01,37,0.00
2016,06,14,01,38,0.00
2016,06,14,01,39,0.00
2016,06,14,01,40,0.00
2016,06,14,01,41,0.00
2016,06,14,01,42,0.00
2016,06,14,01,43,0.00
2016,06,14,01,44,0.00
2016,06,14,01,45,0.00
2016,06,14,01,46,0.00
2016,06,14,01,47,0.00
2016,06,14,01,48,0.00
2016,06,14,01,49,0.00
2016,06,14,01,50,0.00
2016,06,14,01,51,0.00
2016,06,14,01,52,0.00
2016,06,14,01,53,0.00
2016,06,14,01,54,0.00
2016,06,14,01,55,0.00
2016,06,14,01,56,0.00
2016,06,14,01,57,0.00
2016,06,14,01,58,0.00
2016,06,14,01,59,0.00
2016,06,14,02,00,0.00
2016,06,14,02,01,0.00
2016,06,14,02,02,0.00
2016,06,14,02,03,0.00
2016,06,14,02,04,0.00
2016,06,14,02,05,0.00
2016,06,14,02,06,0.00
2016,06,14,02,07,0.00
2016,06,14,02,08,0.00
2016,06,14,02,09,0.00
2016,06,14,02,10,0.00
2016,06,14,02,11,0.00
2016,06,14,02,12,0.00
2016,06,14,02,13,0.00
2016,06,14,02,14,0.00
2016,06,14,02,15,0.00
2016,06,14,02,16,0.00
2016,06,14,02,17,0.00
2016,06,14,02,18,0.00
2016,06,14,02,19,0.00
2016,06,14,02,20,0.00
2016,06,14,02,21,0.00
2016,06,14,02,22,0.00
2016,06,14,02,23,0.00
2016,06,14,02,24,0.00
2016,06,14,02,25,0.00
2016,06,14,02,26,0.00
2016,06,14,02,27,0.00
2016,06,14,02,28,0.00
2016,06,14,02,29,0.00
2016,06,14,02,30,0.00
2016,06,14,02,31,0.00
2016,06,14,02,32,0.00
2016,06,14,02,33,0.00
2016,06,14,02,34,0.00
2016,06,14,02,35,0.00
2016,06,14,02,36,0.00
2016,06,14,02,37,0.00
2016,06,14,02,38,0.00
2016,06,14,02,39,0.00
2016,06,14,02,40,0.00
2016,06,14,02,41,0.00
2016,06,14,02,42,0.00
2016,06,14,02,43,0.00
2016,06,14,02,44,0.00
2016,06,14,02,45,0.00
2016,06,14,02,46,0.00
2016,06,14,02,47,0.00
2016,06,14,02,48,0.00
2016,06,14,02,49,0.00
2016,06,14,02,50,0.00
2016,06,14,02,51,0.00
2016,06,14,02,52,0.00
2016,06,14,02,53,0.00
2016,06,14,02,54,0.00
2016,06,14,02,55,0.00
2016,06,14,02,56,0.00
2016,06,14,02,57,0.00
2016,06,14,02,58,0.00
2016,06,14,02,59,0.00
2016,06,14,03,00,0.00
2016,06,14,03,01,0.00
2016,06,14,03,02,0.00
2016,06,14,03,03,0.00
2016,06,14,03,04,0.00
2016,06,14,03,05,0.00
2016,06,14,03,06,0.00
2016,06,14,03,07,0.00
2016,06,14,03,08,0.00
2016,06,14,03,09,0.00
2016,06,14,03,10,0.00
2016,06,14,03,11,0.00
2016,06,14,03,12,0.00
2016,06,14,03,13,0.00
2016,06,14,03,14,0.00
2016,06,14,03,15,0.00
2016,06,14,03,16,0.00
2016,06,14,03,17,0.00
2016,06,14,03,18,0.00
2016,06,14,03,19,0.00
2016,06,14,03,20,0.00
2016,06,14,03,21,0.00
2016,06,14,03,22,0.00
2016,06,14,03,23,0.00
2016,06,14,03,24,0.00
2016,06,14,03,25,0.00
2016,06,14,03,26,0.00
2016,06,14,03,27,0.00
2016,06,14,03,28,0.00
2016,06,14,03,29,0.00
2016,06,14,03,30,0.00
2016,06,14,03,31,0.00
2016,06,14,03,32,0.00
2016,06,14,03,33,0.00
2016,06,14,03,34,0.00
2016,06,14,03,35,0.00
2016,06,14,03,36,0.00
2016,06,14,03,37,0.00
2016,06,14,03,38,0.00
2016,06,14,03,39,0.00
2016,06,14,03,40,0.00
2016,06,14,03,41,0.00
2016,06,14,03,42,0.00
2016,06,14,03,43,0.00
2016,06,14,03,44,0.00
2016,06,14,03,45,0.00
2016,06,14,03,46,0.00
2016,06,14,03,47,0.00
2016,06,14,03,48,0.00
2016,06,14,03,49,0.00
2016,06,14,03,50,0.00
2016,06,14,03,51,0.00
2016,06,14,03,52,0.00
2016,06,14,03,53,0.00
2016,06,14,03,54,0.00
2016,06,14,03,55,0.00
2016,06,14,03,56,0.00
2016,06,14,03,57,0.00
2016,06,14,03,58,0.00
2016,06,14,03,59,0.00
2016,06,14,04,00,0.00
2016,06,14,04,01,0.00
2016,06,14,04,02,0.00
2016,06,14,04,03,0.00
2016,06,14,04,04,0.00
2016,06,14,04,05,0.00
2016,06,14,04,06,0.00
2016,06,14,04,07,0.00
2016,06,14,04,08,0.00
2016,06,14,04,09,0.00
2016,06,14,04,10,0.00
2016,06,14,04,11,0.00
2016,06,14,04,12,0.00
2016,06,14,04,13,0.00
2016,06,14,04,14,0.00
2016,06,14,04,15,0.00
2016,06,14,04,16,0.00
2016,06,14,04,17,0.00
2016,06,14,04,18,0.00
2016,06,14,04,19,0.00
2016,06,14,04,20,0.00
2016,06,14,04,21,0.00
2016,06,14,04,22,0.00
2016,06,14,04,23,0.00
2016,06,14,04,24,0.00
2016,06,14,04,25,0.00
2016,06,14,04,26,0.00
2016,06,14,04,27,0.00
2016,06,14,04,28,0.00
2016,06,14,04,29,0.00
2016,06,14,04,30,0.00
2016,06,14,04,31,0.00
2016,06,14,04,32,0.00
2016,06,14,04,33,0.00
2016,06,14,04,34,0.00
2016,06,14,04,35,0.00
2016,06,14,04,36,0.00
2016,06,14,04,37,0.00
2016,06,14,04,38,0.00
2016,06,14,04,39,0.00
2016,06,14,04,40,0.00
2016,06,14,04,41,0.00
2016,06,14,04,42,0.00
2016,06,14,04,43,0.00
2016,06,14,04,44,0.00
2016,06,14,04,45,0.00
2016,06,14,04,46,0.00
2016,06,14,04,47,0.00
2016,06,14,04,48,0.00
2016,06,14,04,49,0.00
2016,06,14,04,50,0.00
2016,06,14,04,51,0.00
2016,06,14,04,52,0.00
2016,06,14,04,53,0.00
2016,06,14,04,54,0.00
2016,06,14,04,55,0.00
2016,06,14,04,56,0.00
2016,06,14,04,57,0.00
2016,06,14,04,58,0.00
2016,06,14,04,59,0.00
2016,06,14,05,00,0.00
2016,06,14,05,01,0.00
2016,06,14,05,02,0.00
2016,06,14,05,03,0.00
2016,06,14,05,04,0.00
2016,06,14,05,05,0.00
2016,06,14,05,06,0.00
2016,06,14,05,07,0.00
2016,06,14,05,08,0.00
2016,06,14,05,09,0.00
2016,06,14,05,10,0.00
2016,06,14,05,11,0.00
2016,06,14,05,12,0.00
2016,06,14,05,13,0.00
2016,06,14,05,14,0.00
2016,06,14,05,15,4.20
2016,06,14,05,16,5.00
2016,06,14,05,17,5.00
2016,06,14,05,18,5.00
2016,06,14,05,19,5.40
2016,06,14,05,20,7.00
2016,06,14,05,21,7.00
2016,06,14,05,22,7.00
2016,06,14,05,23,7.90
2016,06,14,05,24,9.00
2016,06,14,05,25,10.10
2016,06,14,05,26,11.60
2016,06,14,05,27,12.00
2016,06,14,05,28,12.00
2016,06,14,05,29,12.00
2016,06,14,05,30,12.00
2016,06,14,05,31,13.90
2016,06,14,05,32,14.00
2016,06,14,05,33,14.20
2016,06,14,05,34,16.00
2016,06,14,05,35,16.00
2016,06,14,05,36,16.00
2016,06,14,05,37,16.00
2016,06,14,05,38,16.80
2016,06,14,05,39,18.00
2016,06,14,05,40,18.00
2016,06,14,05,41,18.60
2016,06,14,05,42,19.00
2016,06,14,05,43,19.00
2016,06,14,05,44,20.60
2016,06,14,05,45,21.00
2016,06,14,05,46,22.90
2016,06,14,05,47,23.00
2016,06,14,05,48,23.20
2016,06,14,05,49,25.00
2016,06,14,05,50,25.20
2016,06,14,05,51,26.00
2016,06,14,05,52,26.00
2016,06,14,05,53,26.00
2016,06,14,05,54,27.00
2016,06,14,05,55,28.00
2016,06,14,05,56,29.30
2016,06,14,05,57,30.00
2016,06,14,05,58,30.00
2016,06,14,05,59,31.60
2016,06,14,06,00,32.00
2016,06,14,06,01,32.90
2016,06,14,06,02,33.00
2016,06,14,06,03,33.20
2016,06,14,06,04,35.00
2016,06,14,06,05,35.00
2016,06,14,06,06,35.60
2016,06,14,06,07,37.00
2016,06,14,06,08,37.00
2016,06,14,06,09,38.00
2016,06,14,06,10,39.00
2016,06,14,06,11,39.00
2016,06,14,06,12,39.00
2016,06,14,06,13,39.00
2016,06,14,06,14,39.00
2016,06,14,06,15,39.00
2016,06,14,06,16,40.00
2016,06,14,06,17,40.00
2016,06,14,06,18,40.00
2016,06,14,06,19,40.00
2016,06,14,06,20,39.80
2016,06,14,06,21,39.00
2016,06,14,06,22,39.00
2016,06,14,06,23,39.00
2016,06,14,06,24,38.00
2016,06,14,06,25,37.00
2016,06,14,06,26,37.00
2016,06,14,06,27,37.00
2016,06,14,06,28,37.00
2016,06,14,06,29,38.70
2016,06,14,06,30,39.00
2016,06,14,06,31,39.00
2016,06,14,06,32,39.00
2016,06,14,06,33,39.00
2016,06,14,06,34,39.00
2016,06,14,06,35,39.00
2016,06,14,06,36,39.00
2016,06,14,06,37,39.00
2016,06,14,06,38,39.00
2016,06,14,06,39,39.00
2016,06,14,06,40,39.00
2016,06,14,06,41,39.00
2016,06,14,06,42,39.00
2016,06,14,06,43,39.80
2016,06,14,06,44,40.00
2016,06,14,06,45,41.70
2016,06,14,06,46,42.00
2016,06,14,06,47,44.00
2016,06,14,06,48,44.30
2016,06,14,06,49,46.20
2016,06,14,06,50,47.00
2016,06,14,06,51,47.00
2016,06,14,06,52,47.70
2016,06,14,06,53,49.00
2016,06,14,06,54,50.00
2016,06,14,06,55,52.00
2016,06,14,06,56,53.00
2016,06,14,06,57,53.70
2016,06,14,06,58,55.40
2016,06,14,06,59,57.60
2016,06,14,07,00,59.80
2016,06,14,07,01,62.70
2016,06,14,07,02,67.00
2016,06,14,07,03,68.10
2016,06,14,07,04,74.60
2016,06,14,07,05,78.60
2016,06,14,07,06,84.50
2016,06,14,07,07,89.80
2016,06,14,07,08,97.10
2016,06,14,07,09,107.50
2016,06,14,07,10,119.60
2016,06,14,07,11,134.60
2016,06,14,07,12,145.90
2016,06,14,07,13,160.80
2016,06,14,07,14,188.80
2016,06,14,07,15,202.40
2016,06,14,07,16,228.60
2016,06,14,07,17,246.90
2016,06,14,07,18,266.20
2016,06,14,07,19,282.50
2016,06,14,07,20,301.00
2016,06,14,07,21,299.20
2016,06,14,07,22,292.10
2016,06,14,07,23,281.00
2016,06,14,07,24,259.00
2016,06,14,07,25,239.10
2016,06,14,07,26,244.40
2016,06,14,07,27,243.70
2016,06,14,07,28,241.00
2016,06,14,07,29,285.80
2016,06,14,07,30,291.00
2016,06,14,07,31,275.60
2016,06,14,07,32,265.40
2016,06,14,07,33,269.90
2016,06,14,07,34,276.40
2016,06,14,07,35,260.50
2016,06,14,07,36,229.80
2016,06,14,07,37,205.70
2016,06,14,07,38,198.60
2016,06,14,07,39,202.00
2016,06,14,07,40,216.30
2016,06,14,07,41,225.40
2016,06,14,07,42,228.90
2016,06,14,07,43,231.50
2016,06,14,07,44,235.20
2016,06,14,07,45,232.60
2016,06,14,07,46,227.30
2016,06,14,07,47,226.60
2016,06,14,07,48,219.70
2016,06,14,07,49,217.60
2016,06,14,07,50,215.20
2016,06,14,07,51,212.40
2016,06,14,07,52,210.20
2016,06,14,07,53,206.60
2016,06,14,07,54,203.00
2016,06,14,07,55,200.90
2016,06,14,07,56,200.00
2016,06,14,07,57,201.40
2016,06,14,07,58,203.60
2016,06,14,07,59,205.60
2016,06,14,08,00,206.90
2016,06,14,08,01,210.80
2016,06,14,08,02,216.20
2016,06,14,08,03,220.10
2016,06,14,08,04,221.00
2016,06,14,08,05,221.50
2016,06,14,08,06,224.90
2016,06,14,08,07,230.80
2016,06,14,08,08,237.10
2016,06,14,08,09,242.00
2016,06,14,08,10,244.70
2016,06,14,08,11,253.20
2016,06,14,08,12,270.60
2016,06,14,08,13,298.50
2016,06,14,08,14,287.60
2016,06,14,08,15,318.80
2016,06,14,08,16,385.10
2016,06,14,08,17,417.30
2016,06,14,08,18,426.30
2016,06,14,08,19,480.00
2016,06,14,08,20,478.80
2016,06,14,08,21,475.40
2016,06,14,08,22,476.70
2016,06,14,08,23,478.00
2016,06,14,08,24,478.00
2016,06,14,08,25,349.30
2016,06,14,08,26,244.00
2016,06,14,08,27,397.40
2016,06,14,08,28,457.50
2016,06,14,08,29,464.40
2016,06,14,08,30,468.00
2016,06,14,08,31,468.00
2016,06,14,08,32,455.60
2016,06,14,08,33,231.70
2016,06,14,08,34,227.60
2016,06,14,08,35,215.20
2016,06,14,08,36,206.70
2016,06,14,08,37,207.10
2016,06,14,08,38,209.00
2016,06,14,08,39,211.10
2016,06,14,08,40,210.80
2016,06,14,08,41,205.90
2016,06,14,08,42,201.10
2016,06,14,08,43,197.80
2016,06,14,08,44,191.10
2016,06,14,08,45,180.60
2016,06,14,08,46,163.80
2016,06,14,08,47,148.50
2016,06,14,08,48,137.90
2016,06,14,08,49,130.60
2016,06,14,08,50,123.20
2016,06,14,08,51,115.20
2016,06,14,08,52,105.60
2016,06,14,08,53,97.80
2016,06,14,08,54,92.40
2016,06,14,08,55,86.50
2016,06,14,08,56,81.00
2016,06,14,08,57,76.90
2016,06,14,08,58,76.00
2016,06,14,08,59,76.00
2016,06,14,09,00,76.80
2016,06,14,09,01,77.00
2016,06,14,09,02,76.00
2016,06,14,09,03,76.00
2016,06,14,09,04,76.00
2016,06,14,09,05,76.00
2016,06,14,09,06,76.00
2016,06,14,09,07,74.60
2016,06,14,09,08,70.70
2016,06,14,09,09,68.00
2016,06,14,09,10,67.00
2016,06,14,09,11,64.50
2016,06,14,09,12,59.50
2016,06,14,09,13,55.00
2016,06,14,09,14,51.50
2016,06,14,09,15,49.20
2016,06,14,09,16,47.10
2016,06,14,09,17,45.90
2016,06,14,09,18,43.70
2016,06,14,09,19,42.40
2016,06,14,09,20,44.00
2016,06,14,09,21,44.00
2016,06,14,09,22,44.70
2016,06,14,09,23,46.50
2016,06,14,09,24,47.00
2016,06,14,09,25,48.10
2016,06,14,09,26,50.20
2016,06,14,09,27,52.40
2016,06,14,09,28,53.80
2016,06,14,09,29,58.80
2016,06,14,09,30,64.20
2016,06,14,09,31,69.50
2016,06,14,09,32,77.70
2016,06,14,09,33,84.70
2016,06,14,09,34,92.80
2016,06,14,09,35,101.80
2016,06,14,09,36,110.00
2016,06,14,09,37,119.30
2016,06,14,09,38,130.40
2016,06,14,09,39,145.00
2016,06,14,09,40,159.00
2016,06,14,09,41,164.30
2016,06,14,09,42,171.30
2016,06,14,09,43,183.00
2016,06,14,09,44,190.80
2016,06,14,09,45,192.90
2016,06,14,09,46,197.20
2016,06,14,09,47,206.50
2016,06,14,09,48,217.40
2016,06,14,09,49,233.20
2016,06,14,09,50,251.20
2016,06,14,09,51,268.80
2016,06,14,09,52,263.20
2016,06,14,09,53,238.40
2016,06,14,09,54,223.00
2016,06,14,09,55,205.10
2016,06,14,09,56,187.40
2016,06,14,09,57,180.80
2016,06,14,09,58,175.10
2016,06,14,09,59,172.40
2016,06,14,10,00,171.10
2016,06,14,10,01,171.00
2016,06,14,10,02,172.10
2016,06,14,10,03,174.60
2016,06,14,10,04,179.00
2016,06,14,10,05,184.80
2016,06,14,10,06,192.10
2016,06,14,10,07,198.80
2016,06,14,10,08,202.90
2016,06,14,10,09,204.00
2016,06,14,10,10,201.60
2016,06,14,10,11,199.40
2016,06,14,10,12,201.10
2016,06,14,10,13,203.60
2016,06,14,10,14,202.40
2016,06,14,10,15,203.70
2016,06,14,10,16,204.00
2016,06,14,10,17,201.90
2016,06,14,10,18,198.70
2016,06,14,10,19,197.00
2016,06,14,10,20,193.50
2016,06,14,10,21,181.50
2016,06,14,10,22,175.20
2016,06,14,10,23,167.80
2016,06,14,10,24,159.30
2016,06,14,10,25,151.90
2016,06,14,10,26,147.20
2016,06,14,10,27,142.80
2016,06,14,10,28,135.80
2016,06,14,10,29,129.20
2016,06,14,10,30,122.10
2016,06,14,10,31,116.20
2016,06,14,10,32,110.40
2016,06,14,10,33,104.50
2016,06,14,10,34,101.60
2016,06,14,10,35,99.20
2016,06,14,10,36,96.40
2016,06,14,10,37,95.00
2016,06,14,10,38,95.00
2016,06,14,10,39,94.00
2016,06,14,10,40,91.90
2016,06,14,10,41,90.40
2016,06,14,10,42,87.20
2016,06,14,10,43,83.80
2016,06,14,10,44,79.80
2016,06,14,10,45,72.70
2016,06,14,10,46,69.20
2016,06,14,10,47,66.80
2016,06,14,10,48,65.00
2016,06,14,10,49,65.00
2016,06,14,10,50,65.00
2016,06,14,10,51,65.00
2016,06,14,10,52,65.00
2016,06,14,10,53,65.90
2016,06,14,10,54,67.00
2016,06,14,10,55,65.90
2016,06,14,10,56,63.70
2016,06,14,10,57,63.00
2016,06,14,10,58,63.00
2016,06,14,10,59,63.00
2016,06,14,11,00,63.00
2016,06,14,11,01,63.00
2016,06,14,11,02,62.10
2016,06,14,11,03,63.60
2016,06,14,11,04,67.40
2016,06,14,11,05,69.20
2016,06,14,11,06,70.60
2016,06,14,11,07,74.00
2016,06,14,11,08,78.80
2016,06,14,11,09,82.10
2016,06,14,11,10,83.60
2016,06,14,11,11,85.30
2016,06,14,11,12,87.40
2016,06,14,11,13,89.50
2016,06,14,11,14,90.00
2016,06,14,11,15,88.30
2016,06,14,11,16,87.90
2016,06,14,11,17,86.00
2016,06,14,11,18,86.00
2016,06,14,11,19,86.00
2016,06,14,11,20,86.60
2016,06,14,11,21,88.00
2016,06,14,11,22,88.00
2016,06,14,11,23,88.00
2016,06,14,11,24,88.00
2016,06,14,11,25,88.00
2016,06,14,11,26,88.00
2016,06,14,11,27,88.00
2016,06,14,11,28,88.00
2016,06,14,11,29,86.30
2016,06,14,11,30,86.00
2016,06,14,11,31,84.10
2016,06,14,11,32,83.70
2016,06,14,11,33,80.70
2016,06,14,11,34,78.40
2016,06,14,11,35,75.50
2016,06,14,11,36,72.70
2016,06,14,11,37,71.40
2016,06,14,11,38,74.00
2016,06,14,11,39,74.00
2016,06,14,11,40,75.10
2016,06,14,11,41,76.70
2016,06,14,11,42,79.80
2016,06,14,11,43,82.50
2016,06,14,11,44,85.40
2016,06,14,11,45,89.60
2016,06,14,11,46,90.90
2016,06,14,11,47,93.20
2016,06,14,11,48,95.30
2016,06,14,11,49,98.40
2016,06,14,11,50,100.50
2016,06,14,11,51,102.70
2016,06,14,11,52,104.40
2016,06,14,11,53,105.00
2016,06,14,11,54,105.00
2016,06,14,11,55,105.00
2016,06,14,11,56,106.30
2016,06,14,11,57,109.90
2016,06,14,11,58,113.20
2016,06,14,11,59,117.40
2016,06,14,12,00,119.80
2016,06,14,12,01,120.90
2016,06,14,12,02,123.20
2016,06,14,12,03,127.20
2016,06,14,12,04,129.20
2016,06,14,12,05,135.50
2016,06,14,12,06,140.60
2016,06,14,12,07,146.80
2016,06,14,12,08,155.10
2016,06,14,12,09,164.50
2016,06,14,12,10,173.90
2016,06,14,12,11,184.50
2016,06,14,12,12,195.70
2016,06,14,12,13,206.50
2016,06,14,12,14,218.40
2016,06,14,12,15,228.90
2016,06,14,12,16,238.60
2016,06,14,12,17,246.40
2016,06,14,12,18,253.80
2016,06,14,12,19,259.20
2016,06,14,12,20,264.90
2016,06,14,12,21,267.60
2016,06,14,12,22,269.80
2016,06,14,12,23,270.10
2016,06,14,12,24,269.00
2016,06,14,12,25,267.80
2016,06,14,12,26,265.60
2016,06,14,12,27,262.90
2016,06,14,12,28,258.80
2016,06,14,12,29,254.00
2016,06,14,12,30,253.00
2016,06,14,12,31,246.40
2016,06,14,12,32,240.60
2016,06,14,12,33,232.90
2016,06,14,12,34,225.60
2016,06,14,12,35,218.20
2016,06,14,12,36,210.90
2016,06,14,12,37,202.40
2016,06,14,12,38,192.90
2016,06,14,12,39,183.30
2016,06,14,12,40,174.60
2016,06,14,12,41,165.10
2016,06,14,12,42,155.40
2016,06,14,12,43,146.20
2016,06,14,12,44,136.80
2016,06,14,12,45,128.70
2016,06,14,12,46,120.10
2016,06,14,12,47,113.30
2016,06,14,12,48,106.50
2016,06,14,12,49,103.20
2016,06,14,12,50,99.10
2016,06,14,12,51,97.00
2016,06,14,12,52,97.00
2016,06,14,12,53,97.40
2016,06,14,12,54,101.10
2016,06,14,12,55,106.90
2016,06,14,12,56,109.00
2016,06,14,12,57,121.60
2016,06,14,12,58,136.00
2016,06,14,12,59,149.20
2016,06,14,13,00,160.80
2016,06,14,13,01,170.60
2016,06,14,13,02,178.50
2016,06,14,13,03,183.30
2016,06,14,13,04,185.60
2016,06,14,13,05,188.60
2016,06,14,13,06,190.00
2016,06,14,13,07,190.80
2016,06,14,13,08,192.00
2016,06,14,13,09,192.50
2016,06,14,13,10,194.10
2016,06,14,13,11,195.00
2016,06,14,13,12,195.00
2016,06,14,13,13,195.00
2016,06,14,13,14,195.00
2016,06,14,13,15,196.80
2016,06,14,13,16,199.90
2016,06,14,13,17,207.60
2016,06,14,13,18,220.10
2016,06,14,13,19,235.80
2016,06,14,13,20,256.50
2016,06,14,13,21,280.80
2016,06,14,13,22,307.40
2016,06,14,13,23,335.80
2016,06,14,13,24,361.50
2016,06,14,13,25,385.00
2016,06,14,13,26,404.70
2016,06,14,13,27,415.90
2016,06,14,13,28,426.20
2016,06,14,13,29,429.00
2016,06,14,13,30,443.40
2016,06,14,13,31,443.90
2016,06,14,13,32,420.80
2016,06,14,13,33,409.40
2016,06,14,13,34,403.10
2016,06,14,13,35,389.80
2016,06,14,13,36,377.40
2016,06,14,13,37,358.60
2016,06,14,13,38,335.60
2016,06,14,13,39,312.50
2016,06,14,13,40,299.90
2016,06,14,13,41,297.00
2016,06,14,13,42,294.90
2016,06,14,13,43,299.20
2016,06,14,13,44,301.80
2016,06,14,13,45,302.00
2016,06,14,13,46,305.80
2016,06,14,13,47,313.90
2016,06,14,13,48,323.50
2016,06,14,13,49,334.90
2016,06,14,13,50,346.50
2016,06,14,13,51,351.90
2016,06,14,13,52,375.00
2016,06,14,13,53,416.50
2016,06,14,13,54,445.40
2016,06,14,13,55,471.80
2016,06,14,13,56,501.20
2016,06,14,13,57,511.40
2016,06,14,13,58,540.40
2016,06,14,13,59,603.20
2016,06,14,14,00,653.00
2016,06,14,14,01,677.20
2016,06,14,14,02,594.10
2016,06,14,14,03,671.00
2016,06,14,14,04,692.60
2016,06,14,14,05,789.50
2016,06,14,14,06,838.20
2016,06,14,14,07,838.00
2016,06,14,14,08,776.30
2016,06,14,14,09,766.00
2016,06,14,14,10,708.40
2016,06,14,14,11,711.00
2016,06,14,14,12,733.00
2016,06,14,14,13,733.00
2016,06,14,14,14,733.00
2016,06,14,14,15,933.00
2016,06,14,14,16,954.00
2016,06,14,14,17,890.60
2016,06,14,14,18,320.00
2016,06,14,14,19,320.60
2016,06,14,14,20,321.80
2016,06,14,14,21,317.30
2016,06,14,14,22,315.60
2016,06,14,14,23,318.30
2016,06,14,14,24,321.00
2016,06,14,14,25,313.10
2016,06,14,14,26,300.90
2016,06,14,14,27,298.40
2016,06,14,14,28,295.80
2016,06,14,14,29,304.30
2016,06,14,14,30,306.00
2016,06,14,14,31,389.60
2016,06,14,14,32,404.50
2016,06,14,14,33,580.40
2016,06,14,14,34,484.30
2016,06,14,14,35,429.00
2016,06,14,14,36,429.00
2016,06,14,14,37,419.00
2016,06,14,14,38,397.40
2016,06,14,14,39,354.00
2016,06,14,14,40,309.60
2016,06,14,14,41,287.80
2016,06,14,14,42,262.20
2016,06,14,14,43,243.00
2016,06,14,14,44,227.10
2016,06,14,14,45,216.90
2016,06,14,14,46,207.40
2016,06,14,14,47,198.30
2016,06,14,14,48,190.90
2016,06,14,14,49,183.60
2016,06,14,14,50,176.50
2016,06,14,14,51,172.00
2016,06,14,14,52,168.00
2016,06,14,14,53,159.30
2016,06,14,14,54,153.50
2016,06,14,14,55,148.20
2016,06,14,14,56,142.80
2016,06,14,14,57,136.80
2016,06,14,14,58,131.10
2016,06,14,14,59,126.00
2016,06,14,15,00,118.70
2016,06,14,15,01,114.00
2016,06,14,15,02,110.60
2016,06,14,15,03,106.70
2016,06,14,15,04,104.80
2016,06,14,15,05,103.40
2016,06,14,15,06,102.60
2016,06,14,15,07,104.40
2016,06,14,15,08,105.90
2016,06,14,15,09,109.20
2016,06,14,15,10,113.90
2016,06,14,15,11,120.60
2016,06,14,15,12,127.90
2016,06,14,15,13,135.50
2016,06,14,15,14,144.30
2016,06,14,15,15,152.60
2016,06,14,15,16,160.00
2016,06,14,15,17,167.50
2016,06,14,15,18,173.10
2016,06,14,15,19,180.20
2016,06,14,15,20,185.90
2016,06,14,15,21,189.80
2016,06,14,15,22,195.40
2016,06,14,15,23,200.40
2016,06,14,15,24,204.00
2016,06,14,15,25,207.80
2016,06,14,15,26,211.60
2016,06,14,15,27,213.70
2016,06,14,15,28,217.00
2016,06,14,15,29,219.60
2016,06,14,15,30,220.90
2016,06,14,15,31,222.90
2016,06,14,15,32,225.00
2016,06,14,15,33,225.00
2016,06,14,15,34,225.00
2016,06,14,15,35,225.00
2016,06,14,15,36,225.70
2016,06,14,15,37,227.80
2016,06,14,15,38,229.40
2016,06,14,15,39,231.10
2016,06,14,15,40,233.20
2016,06,14,15,41,235.20
2016,06,14,15,42,238.10
2016,06,14,15,43,240.60
2016,06,14,15,44,243.60
2016,06,14,15,45,247.60
2016,06,14,15,46,250.00
2016,06,14,15,47,251.20
2016,06,14,15,48,253.30
2016,06,14,15,49,255.50
2016,06,14,15,50,256.50
2016,06,14,15,51,255.00
2016,06,14,15,52,255.00
2016,06,14,15,53,254.10
2016,06,14,15,54,251.90
2016,06,14,15,55,249.20
2016,06,14,15,56,246.60
2016,06,14,15,57,243.90
2016,06,14,15,58,240.00
2016,06,14,15,59,236.50
2016,06,14,16,00,230.60
2016,06,14,16,01,224.60
2016,06,14,16,02,217.70
2016,06,14,16,03,212.10
2016,06,14,16,04,205.60
2016,06,14,16,05,198.20
2016,06,14,16,06,193.00
2016,06,14,16,07,188.20
2016,06,14,16,08,178.80
2016,06,14,16,09,171.30
2016,06,14,16,10,164.10
2016,06,14,16,11,157.90
2016,06,14,16,12,153.90
2016,06,14,16,13,147.70
2016,06,14,16,14,144.30
2016,06,14,16,15,139.50
2016,06,14,16,16,138.90
2016,06,14,16,17,137.20
2016,06,14,16,18,139.40
2016,06,14,16,19,143.50
2016,06,14,16,20,150.50
2016,06,14,16,21,159.10
2016,06,14,16,22,169.60
2016,06,14,16,23,176.00
2016,06,14,16,24,186.00
2016,06,14,16,25,200.40
2016,06,14,16,26,209.90
2016,06,14,16,27,218.60
2016,06,14,16,28,228.20
2016,06,14,16,29,236.30
2016,06,14,16,30,243.30
2016,06,14,16,31,251.30
2016,06,14,16,32,257.70
2016,06,14,16,33,264.80
2016,06,14,16,34,270.00
2016,06,14,16,35,275.20
2016,06,14,16,36,278.90
2016,06,14,16,37,281.00
2016,06,14,16,38,286.50
2016,06,14,16,39,293.60
2016,06,14,16,40,298.60
2016,06,14,16,41,304.20
2016,06,14,16,42,308.20
2016,06,14,16,43,313.60
2016,06,14,16,44,317.50
2016,06,14,16,45,319.80
2016,06,14,16,46,323.10
2016,06,14,16,47,329.00
2016,06,14,16,48,329.10
2016,06,14,16,49,331.80
2016,06,14,16,50,340.80
2016,06,14,16,51,346.80
2016,06,14,16,52,354.30
2016,06,14,16,53,363.30
2016,06,14,16,54,370.00
2016,06,14,16,55,377.80
2016,06,14,16,56,390.80
2016,06,14,16,57,412.80
2016,06,14,16,58,439.50
2016,06,14,16,59,480.90
2016,06,14,17,00,512.20
2016,06,14,17,01,534.80
2016,06,14,17,02,571.00
2016,06,14,17,03,580.60
2016,06,14,17,04,588.20
2016,06,14,17,05,609.80
2016,06,14,17,06,627.70
2016,06,14,17,07,643.60
2016,06,14,17,08,653.50
2016,06,14,17,09,660.10
2016,06,14,17,10,672.40
2016,06,14,17,11,681.30
2016,06,14,17,12,704.40